Regional Weather Roundup
Issued by NWS

Home | Current Version | Previous Version | Text Only | Print | Product List | Glossary On
Versions: 1 2 3 4 5 6 7 8 9 10 11 12 13 14 15 16 17 18 19 20 21 22 23 24 25 26 27 28 29 30 31 32 33 34 35 36 37 38 39 40 41 42 43 44 45 46 47 48 49 50
000
ASUS45 KABQ 262010
RWRNM
NEW MEXICO REGIONAL WEATHER ROUNDUP
NATIONAL WEATHER SERVICE ALBUQUERQUE NM
200 PM MDT WED APR 26 2017

NOTE: "FAIR" MEANS FEW OR NO CLOUDS BELOW 12,000 FEET AGL WITH NO
       SIGNIFICANT WEATHER OR OBSTRUCTIONS TO VISION.

      THIS PRODUCT IS RELEASED AS TWO VERSIONS.  ONE VERSION NEAR
      THE TOP OF THE HOUR CONTAINING PRELIMINARY DATA FROM ALBUQUERQUE
      AND OTHER STATIONS.  A FINAL VERSION WITH ADDITIONAL DATA IS
      ISSUED ABOUT 10 MINUTES AFTER THE HOUR.

NMZ501-503-504-510>518-262100-
NORTHWEST PLATEAU/NORTHCENTRAL MOUNTAINS

CITY           SKY/WX    TMP DP  RH WIND       PRES   REMARKS
FARMINGTON     FAIR      58  16  19 W21G30    29.87F
LOS ALAMOS     CLOUDY    54  25  31 N8G17     29.88F
SANTA FE       FAIR      59  27  29 W18G33    29.85F
TAOS             N/A     54  23  30 SW20      29.86F
ANGEL FIRE     FAIR      44  27  52 W13G18    29.90S

$$
NMZ402-403-502-505>509-262100-
WESTCENTRAL MOUNTAINS/SOUTHWEST MOUNTAINS

CITY           SKY/WX    TMP DP  RH WIND       PRES   REMARKS
GALLUP         FAIR      59  19  21 W16G23    29.93F
GRANTS         FAIR      59  13  16 W13G22    29.93F
SILVER CITY    FAIR      68  16  14 W9G23     29.93F

$$
NMZ407-409-411-412-262100-
SOUTHERN DESERTS

CITY           SKY/WX    TMP DP  RH WIND       PRES   REMARKS
DEMING         FAIR      72  15  11 W12G25    29.88F
LAS CRUCES     FAIR      71  15  11 SW6       29.90F
HOLLOMAN AFB   FAIR      69  15  12 W12       29.90F
ALAMOGORDO     FAIR      66  16  14 W5        29.89F
T OR C         FAIR      70  14  11 S12G23    29.86F

$$
NMZ519>523-262100-
CENTRAL VALLEYS/CENTRAL HIGHLANDS

CITY           SKY/WX    TMP DP  RH WIND       PRES   REMARKS
ALBUQUERQUE    FAIR      62  21  20 W14       29.88F
DOUBLE EAGLE   PTSUNNY   63  21  20 W13       29.89F
MORIARTY ARPT  FAIR      62  25  24 W28G35    29.89F
CLINES CORNERS FAIR      54  20  26 W18G30    29.89F
BELEN          FAIR      66  13  13 N7        29.87F
SOCORRO        FAIR      69  13  11 CALM      29.85F

$$
NMZ524>526-539-540-262100-
SOUTHCENTRAL MOUNTAINS

CITY           SKY/WX    TMP DP  RH WIND       PRES   REMARKS
RUIDOSO        FAIR      55  18  22 W5        29.93F

$$
NMZ527>531-262100-
NORTHEAST HIGHLANDS/NORTHEAST PLAINS

CITY           SKY/WX    TMP DP  RH WIND       PRES   REMARKS
LAS VEGAS      FAIR      57  15  19 SE10      29.81F
RATON          CLOUDY    54  24  31 S7        29.78F
CLAYTON        FAIR      56  30  37 NW16G24   29.81F

$$
NMZ532>537-262100-
EASTCENTRAL PLAINS

CITY           SKY/WX    TMP DP  RH WIND       PRES   REMARKS
SANTA ROSA     FAIR      66  19  16 SW13G21   29.77F
TUCUMCARI      FAIR      61  39  44 SE8       29.79F
CANNON AFB     CLOUDY    61  33  34 SW12G22   29.84F
CLOVIS AIRPORT FAIR      57  36  44 SW7       29.84F

$$
NMZ028-029-538-262100-
SOUTHEAST PLAINS

CITY           SKY/WX    TMP DP  RH WIND       PRES   REMARKS
ROSWELL        FAIR      67  34  29 VRB7      29.84F
ARTESIA        FAIR      66  34  30 E9        29.85F
CARLSBAD       FAIR      69  32  25 VRB7      29.84F
HOBBS          MOSUNNY   64  32  29 N6        29.87F


$$




USA.gov is the U.S. government's official web portal to all federal, state and local government web resources and services.